LTCCLTCE

Guest
Details From LTCC - DIYARBAKIR
To LTCE - ERZURUM
Flight Number -
Tags generated
Created
Modified
Stats Distance 132 nm / 245 km
Max Altitude 6,100 ft / 1,859 m
Waypoints 3
Social Downloads 2
Likes 0
Share VATSIM

Download

Looking for another format? Having issues loading an existing format? Contact us
Advertisement - Login to hide

Notes

Basic altitude profile: - Ascent Rate: 2500ft/min - Ascent Speed: 250kts - Cruise Altitude: 35000ft - Cruise Speed: 420kts - Descent Rate: 1500ft/min - Descent Speed: 250kts Options: - Use NATs: yes - Use PACOTS: yes - Use low airways: yes - Use high airways: yes

Route

LTCC NEGOL LTCE

ID Type Via Altitude Latitude Longitude Leg Dist Tot Dist Heading (true) Name
O LTCC APT - 0 ft / 0 m 37.89390˚ 40.20102˚ - 0 nm - DIYARBAKIR
NEGOL FIX - 6,100 ft / 1,859 m 39.47639˚ 41.07917˚ 103 nm 103 nm 23° / 24° -
O LTCE APT - 0 ft / 0 m 39.95223˚ 41.17010˚ 28 nm 132 nm 8° / 8° ERZURUM

Altitude Profile

Advertisement - Login to hide

LTCC

Details ICAO LTCC (DIY)
Name DIYARBAKIR
Region Turkey
Timezone Europe/Istanbul (UTC+3.0)
Stats Elevation 2,251 ft / 686 m (AMSL)
Location 37.893898° 40.201017°
Runways 1
Magnetic Variation 5.673° E

METAR

LTCC 211920Z 25009KT CAVOK 20/14 Q1013 NOSIG

Decode

TAF

TAF LTCC 211640Z 2118/2218 30012KT 9999 FEW040 BECMG 2120/2122 CAVOK

Decode

Departure Runways

ID Width Length Bearing (true) Bearing (mag) Surface Threshold Offset Overrun Length
16 148 ft / 45 m 11,663 ft / 3,555 m 162.66° 156.99° Concrete 0 ft / 0 m 507 ft / 155 m
34 148 ft / 45 m 11,663 ft / 3,555 m 342.67° 337.00° Concrete 0 ft / 0 m 495 ft / 151 m

LTCE

Details ICAO LTCE (ERZ)
Name ERZURUM
Region Turkey
Timezone Europe/Istanbul (UTC+3.0)
Stats Elevation 5,763 ft / 1,757 m (AMSL)
Location 39.952230° 41.170103°
Runways 3
Magnetic Variation 6.145° E

METAR

LTCE 211920Z 01004KT 340V040 9999 SCT030 BKN080 10/09 Q1022 NOSIG

Decode

TAF

TAF LTCE 211640Z 2118/2218 VRB02KT 9999 SCT030 BKN080 BECMG 2207/2209 FEW025CB BKN030 TEMPO 2208/2212 -TSRA PROB40 TEMPO 2212/2215 -TSRA BECMG 2215/2217 SCT030 BKN080

Decode

Destination Runways

ID Width Length Bearing (true) Bearing (mag) Surface Threshold Offset Overrun Length
05 49 ft / 15 m 3,025 ft / 922 m 48.18° 42.04° Asphalt 0 ft / 0 m 0 ft / 0 m
08L 148 ft / 45 m 12,471 ft / 3,801 m 88.04° 81.90° Concrete 0 ft / 0 m 534 ft / 163 m
08R 98 ft / 30 m 12,454 ft / 3,796 m 88.12° 81.98° Concrete 0 ft / 0 m 490 ft / 149 m
23 49 ft / 15 m 3,025 ft / 922 m 228.18° 222.04° Asphalt 0 ft / 0 m 0 ft / 0 m
26L 98 ft / 30 m 12,454 ft / 3,796 m 268.15° 262.01° Concrete 0 ft / 0 m 490 ft / 149 m
26R 148 ft / 45 m 12,471 ft / 3,801 m 268.07° 261.93° Concrete 0 ft / 0 m 472 ft / 144 m

Approach Navaids

Runway Type Ident Frequency Range Bearing (true) Bearing (mag) Slope Elevation
26R Localiser IERZ 110.50 MHz 18 nm / 33 km 267.67° 261.53° - 5,763 ft / 1,757 m (AMSL)
26R Glidescope IERZ 110.50 MHz 10 nm / 19 km 268.06° 261.91° 3.20° 5,763 ft / 1,757 m (AMSL)

Popular Alternatives